User: anonymous   Login
Location: Newark
(33.6333°S, 78.8500°W)
Time: 18:51:52
(UTC+00:00)
Language:

Transit 2A Rocket - Orbit

View from above orbital plane
View from above orbital plane
View from above satellite
View from above satellite

Ground track
Ground track

The orbit data is extracted from the following two-line orbital elements,

1    47U 60007C   19259.91847290 -.00000029 +00000-0 +18437-4 0  9999
2    47 066.6661 169.0350 0223769 145.7932 215.7824 14.42048765095091
Epoch (UTC): 16 September 2019 22:02:36
Eccentricity: 0.0223769
inclination: 66.6661°
perigee height: 592 km
apogee height: 911 km
right ascension of ascending node: 169.0350°
argument of perigee: 145.7932°
revolutions per day: 14.42048765
mean anomaly at epoch: 215.7824°
orbit number at epoch: 9509

The dashed part of the orbit path shows where the satellite is in the earth's shadow,  

DLR